Location: Gradaro
(45.0833°N, 10.8833°E)
Time: 21:38:54
(UTC+00:00)

FENGYUN 1C DEB - Pass Details

Date: 25 June 2021
Orbit: 744 x 851 km, 99.4° (Epoch: 27 July)

Event Time Altitude Azimuth Distance (km) Brightness Sun altitude
Exits shadow 00:06:44 41° 205° (SSW) 1,177 ? -20.7°
Maximum altitude 00:08:17 57° 258° (WSW) 970 ? -20.6°
Drops below altitude 10° 00:13:31 10° 337° (NNW) 2,398 ? -20.4°
Sets 00:15:53 0° 341° (NNW) 3,317 ? -20.3°
